sat.trackr.live / text

‹ back to catalog

SPOT 7

NORAD 40053 · 2014-034A

PAYLOAD ACTIVE UNKNOWN

§ Identity

Operator
Country
AZER
Launch date
2014-06-30
Launch site
SRILR
Launch vehicle
Mass (kg)
RCS (m²)
3.68

Purposes: earth_obs

External: N2YO · Heavens-Above · Gunter

§ Orbital elements

Epoch: 2026-09-20T04:09:57.288672Z

Period
98.56 min
Inclination
98.0532°
Eccentricity
0.0001167
Mean motion
14.61023780 rev/d
Perigee alt
689.0 km
Apogee alt
690.7 km
Semi-major
7,068.0 km
B*
6.0151e-5
RAAN
323.1729°
Arg perigee
79.9347°
Mean anomaly
280.1986°
Rev number
65,100

§ Raw data

SPOT 71 40053U 14034A   26263.17357973  .00000250  00000+0  60151-4 0  99982 40053  98.0532 323.1729 0001167  79.9347 280.1986 14.61023780651000

JSON: /api/v1/satellites/40053 · /tle

For live sub-satellite position, see the globe view (requires WebGL).

§ Visibility from observer

Set your observer location to see the next 7 days of passes ≥ 10°. The values pass through the URL so the page stays shareable.

No JS? Fill the form by hand. The geolocation button needs JavaScript.